This demonstration page uses our WeatherBlox Daily Observations layout. Learn more.

Left ArrowRight Arrow

Hourly Observations for July 8, 2018

Temp ( °F °C ) Dew Point ( °F °C ) Humidity (%) Winds ( mph kmh ) Pressure ( in mb ) Visibility ( mi km ) Precip ( " mm )
12:51 am 00:51 Clear 80 26.7 54 12.2 41 41 ESE 7 11 29.88 1012 10 16.0934 N/A
1:51 am 01:51 Clear 78 25.6 53 11.7 42 42 ESE 3 6 29.88 1012 10 16.0934 N/A
2:51 am 02:51 Clear 77 25 55 12.8 47 47 E 7 11 29.88 1012 10 16.0934 N/A
3:51 am 03:51 Clear 78 25.6 54 12.2 43 43 E 8 13 29.91 1013 10 16.0934 N/A
4:51 am 04:51 Clear 78 25.6 54 12.2 43 43 SE 8 13 29.92 1013 10 16.0934 N/A
5:51 am 05:51 Sunny 77 25 53 11.7 43 43 SE 8 13 29.94 1014 10 16.0934 N/A
6:51 am 06:51 Sunny 80 26.7 53 11.7 39 39 ESE 9 15 29.94 1014 10 16.0934 N/A
7:51 am 07:51 Sunny 83 28.3 54 12.2 37 37 VRB 6 9 29.96 1014 10 16.0934 N/A
8:51 am 08:51 Sunny 86 30 54 12.2 33 33 VRB 6 9 29.95 1014 10 16.0934 N/A
9:51 am 09:51 Sunny 88 31.1 54 12.2 31 31 N N/A 29.93 1014 10 16.0934 N/A
10:51 am 10:51 Sunny 91 32.8 53 11.7 27 27 VRB 6 9 29.91 1013 10 16.0934 N/A
11:51 am 11:51 Sunny 95 35 52 11.1 23 23 undefined N/A 29.88 1012 10 16.0934 N/A
12:51 pm 12:51 Sunny 97 36.1 50 10 20 20 SSW 10 17 29.84 1011 10 16.0934 N/A
1:51 pm 13:51 Sunny 98 36.7 48 8.9 18 18 SSW 7 11 29.8 1009 10 16.0934 N/A
2:51 pm 14:51 Mostly Sunny 100 37.8 47 8.3 16 16 WSW 7 11 29.75 1008 10 16.0934 N/A
3:51 pm 15:51 Sunny 102 38.9 45 7.2 14 14 VRB 6 9 29.72 1006 10 16.0934 N/A
4:42 pm 16:42 Partly Cloudy with Nearby Thunderstorms 99 37 48 9 18 18 SE 24 39 29.62 1003 10 16.0934 N/A
4:51 pm 16:51 Mostly Cloudy with Light Rain 94 34.4 55 12.8 27 27 SE 12 19 29.76 1008 10 16.0934 N/A
5:03 pm 17:03 Mostly Cloudy with Nearby Thunderstorms 93 33.9 54 12.2 27 27 NNE 12 19 29.68 1005 10 16.0934 N/A
5:18 pm 17:18 Cloudy with Nearby Thunderstorms 79 26 64 18 61 61 NNW 24 39 29.77 1008 4 6.43736 N/A
5:49 pm 17:49 Sunny 84 29 61 16 45 45 N 18 30 29.74 1007 10 16.0934 0.01 0.254
5:51 pm 17:51 Sunny 84 28.9 60 15.6 44 44 N 18 30 29.79 1009 10 16.0934 0.01 0.254
6:51 pm 18:51 Sunny 87 30.6 55 12.8 34 34 WNW 8 13 29.79 1009 10 16.0934 N/A
7:51 pm 19:51 Clear 84 28.9 59 15 43 43 NNW 3 6 29.8 1009 10 16.0934 N/A
8:51 pm 20:51 Clear 85 29.4 56 13.3 37 37 SSE 3 6 29.83 1010 10 16.0934 N/A
9:51 pm 21:51 Clear 83 28.3 56 13.3 40 40 N N/A 29.85 1011 10 16.0934 N/A
10:51 pm 22:51 Clear 87 30.6 53 11.7 31 31 ESE 12 19 29.86 1011 10 16.0934 N/A
11:10 pm 23:10 Mostly Clear with Thunderstorms 86 30 54 12 33 33 SE 8 13 29.83 1010 10 16.0934 N/A
11:32 pm 23:32 Partly Cloudy 82 28 55 13 40 40 E 8 13 29.83 1010 10 16.0934 N/A
11:51 pm 23:51 Partly Cloudy 83 28.3 55 12.8 38 38 ENE 9 15 29.86 1011 10 16.0934 N/A

Powered by AerisWeather